# Land Stadt Wetter Temperatur Luftdruck Luftfeuchtigkeit Sichtweite Windgeschwindigkeit Windrichtung Ortszeit
1 kr Seoul Rain 22 1014 58 10000 30 120 02.08.2018 14:21
2 bg Warna Rain 19 1009 89 10000 33 270 02.08.2018 14:21
3 jp Nagasaki Clouds 29 1017 58 10000 17 250 02.08.2018 14:21
4 mg Antananarivo Clouds 18 1024 52 10000 19 120 02.08.2018 14:21
5 de Trier Rain 13 1019 98 10000 10 209 02.08.2018 14:21
6 de München Rain 12 1022 91 10000 5 309 02.08.2018 14:21
7 de Hamburg Rain 11 1010 97 10000 15 240 02.08.2018 14:21
8 au Alice Springs Clouds 27 1010 26 10000 7 240 02.08.2018 14:21
9 fj Suva Rain 27 1011 78 10000 15 70 02.08.2018 14:21
10 de Berlin Clear 11 1002 90 10000 20 250 02.08.2018 14:21
11 bg Sofia Clouds 16 1019 73 10000 32 280 02.08.2018 14:21
12 fi Rovaniemi Rain 4 1006 93 10000 11 120 02.08.2018 14:21
13 gb Glasgow Clouds 10 1016 88 10000 14 234 02.08.2018 14:21
14 cn Shanghai Clear 33 1010 70 10000 14 180 02.08.2018 14:21
15 vn Hanoi Clouds 30 1010 96 10000 9 133 02.08.2018 14:21
16 au Perth Clouds 20 1015 46 10000 24 100 02.08.2018 14:21
17 pg Port Moresby Clouds 28 1006 75 10000 19 148 02.08.2018 14:21
18 it Mailand Clouds 13 1019 91 10000 2 0 02.08.2018 14:21
19 de Emden Clear 12 1012 92 10000 16 253 02.08.2018 14:21
20 de Hiddensee Clouds 13 1007 86 10000 41 262 02.08.2018 14:21
21 de Flensburg Clear 11 1007 87 10000 22 260 02.08.2018 14:21
22 gb Manchester Clouds 10 1015 93 10000 9 220 02.08.2018 14:21
23 ph Manila Clouds 32 1008 58 10000 15 110 02.08.2018 14:21
24 fr Bordeaux Clouds 17 1026 94 10000 7 220 02.08.2018 14:21
25 de Köln Clouds 14 1014 86 10000 13 230 02.08.2018 14:21
26 us Las Vegas Clear 28 1010 24 10000 11 170 02.08.2018 14:21
27 de Kassel Clouds 11 1014 87 10000 19 200 02.08.2018 14:21
28 ua Kiew Rain 14 989 91 10000 13 166 02.08.2018 14:21
29 fi Helsinki Clouds 9 1009 90 10000 7 60 02.08.2018 14:21
30 mx Mexiko Stadt Clear 14 1021 66 10000 9 300 02.08.2018 14:21
31 ie Dublin Clouds 10 1017 90 10000 15 240 02.08.2018 14:21
32 es Las Palmas de Gran Canaria Clouds 21 1016 77 10000 14 24 02.08.2018 14:21
33 sa Riad Clear 28 1010 13 10000 3 15 02.08.2018 14:21
34 ae Dubai Clear 31 1007 66 10000 7 140 02.08.2018 14:21
35 af Kabul Clear 19 1013 21 10000 4 44 02.08.2018 14:21
36 us Tucson Clear 24 1013 61 10000 9 200 02.08.2018 14:21
37 mx Veracruz Clouds 25 1014 72 10000 5 318 02.08.2018 14:21
38 de Braunschweig Clouds 12 1013 90 10000 15 240 02.08.2018 14:21
39 es Tarifa Clouds 22 1021 78 10000 51 90 02.08.2018 14:21
40 do Santo Domingo Clouds 25 1016 97 10000 5 224 02.08.2018 14:21
41 br Manaus Rain 25 1012 88 10000 11 290 02.08.2018 14:21
42 th Bangkok Rain 32 1005 53 10000 4 291 02.08.2018 14:21
43 in Nagpur Haze 32 1009 58 5000 13 340 02.08.2018 14:21
44 us Denver Clouds 13 1019 81 10000 3 45 02.08.2018 14:21
45 de Oberstdorf Clouds 10 1022 96 10000 3 152 02.08.2018 14:21
46 de Hannover Clouds 12 1013 92 10000 15 250 02.08.2018 14:21
47 de Nürnberg Rain 12 1019 86 10000 15 230 02.08.2018 14:21
48 de Helgoland Rain 15 1010 73 10000 39 288 02.08.2018 14:22
49 de Torfhaus Clouds 8 1015 98 8584 17 244 02.08.2018 14:22
50 es Barcelona Clear 19 1025 61 10000 24 330 02.08.2018 14:22
51 pt Lissabon Clear 17 1021 70 10000 13 60 02.08.2018 14:22
52 za Kapstadt Clear 16 1016 74 10000 10 345 02.08.2018 14:22
53 ca Montreal Clear 7 1027 70 10000 30 30 02.08.2018 14:22
54 eg Kairo Clouds 25 1014 78 10000 11 20 02.08.2018 14:22
55 bo Potisi Clear 3 1020 87 10000 6 339 02.08.2018 14:22
56 in Jagatsukh Clear 22 1014 48 10000 12 196 02.08.2018 14:22
57 ru Werchojansk Clouds -2 1017 79 10000 3 201 02.08.2018 14:22
58 gl Nuuk Clouds 1 993 93 10000 7 60 02.08.2018 14:22
59 ru Moskau Clouds 10 1006 87 10000 17 237 02.08.2018 14:22
60 gr Athen Clouds 25 1013 55 10000 19 300 02.08.2018 14:22
61 no Hammerfest Clouds 4 1002 81 10000 13 100 02.08.2018 14:22
62 uy Montevideo Fog 13 1021 68 800 8 345 02.08.2018 14:22
63 ar Ushuaia Clear 4 1022 60 10000 15 290 02.08.2018 14:22
64 au Darwin Clear 32 1008 46 10000 7 360 02.08.2018 14:22
65 id Jakarta Clouds 32 1007 62 10000 17 355 02.08.2018 14:22
66 in Mumbai Haze 30 1010 70 5000 13 300 02.08.2018 14:22
67 cn Lhasa Clouds 18 1006 33 10000 9 196 02.08.2018 14:22
68 iq Bagdad Clear 27 1007 29 10000 7 270 02.08.2018 14:22
69 ke Nairobi Clouds 19 1023 68 10000 7 100 02.08.2018 14:22
70 at Wien Clouds 14 1019 73 10000 26 303 02.08.2018 14:22
71 it Palermo Clear 21 1004 49 10000 2 236 02.08.2018 14:22
72 is Reykjavik Clouds 8 986 87 10000 46 250 02.08.2018 14:22
73 ru Jakutsk Clouds -1 1013 58 10000 18 20 02.08.2018 14:22
74 jp Tokio Clouds 29 1020 36 10000 13 120 02.08.2018 14:22
75 br Rio de Janeiro Clouds 21 1015 88 10000 7 200 02.08.2018 14:22
76 ar Esquel Clouds 8 1021 62 10000 2 226 02.08.2018 14:22
77 bo La Paz Clouds 2 1038 93 10000 11 70 02.08.2018 14:22
78 ec San Cristobal Clouds 20 1013 89 10000 19 175 02.08.2018 14:22
79 de Stuttgart Rain 13 1020 92 6000 6 250 02.08.2018 14:22
80 bs Nassau Clear 28 1010 72 10000 9 256 02.08.2018 14:22
81 us Honolulu Clouds 26 1012 76 10000 13 30 02.08.2018 14:22
82 de Bremen Clouds 11 1012 96 10000 13 260 02.08.2018 14:22
83 de Frankfurt Rain 13 1016 93 10000 15 200 02.08.2018 14:22
84 de Dresden Clear 12 1010 87 10000 17 240 02.08.2018 14:22
85 de Freiburg Clouds 16 1019 85 10000 6 217 02.08.2018 14:22
86 ad Andorra la Vella Clouds 11 1030 82 10000 2 341 02.08.2018 14:22
87 de Magdeburg Clear 9 1004 96 10000 17 240 02.08.2018 14:22
88 tr Alanya Clear 26 1012 34 10000 7 302 02.08.2018 14:22
89 us Los Angeles Clouds 18 1016 81 10000 11 250 02.08.2018 14:22
90 us Death Valley Clear 31 1008 18 10000 6 186 02.08.2018 14:22
91 es Palma de Mallorca Clouds 14 1027 93 10000 6 10 02.08.2018 14:22
92 es Sevilla Clear 17 1020 58 10000 17 60 02.08.2018 14:22
93 fr Paris Clouds 16 1019 93 10000 13 210 02.08.2018 14:22
94 sb Honiara Clouds 28 1009 76 10000 4 67 02.08.2018 14:22
95 ck Avarua Clouds 22 1017 64 10000 15 110 02.08.2018 14:22
96 ar Buenos Aires Clear 15 1022 86 10000 7 350 02.08.2018 14:22
97 fr Nizza Clear 17 1019 84 10000 11 320 02.08.2018 14:22
98 us New York Clouds 16 1015 71 10000 39 49 02.08.2018 14:22
99 au Sydney Clouds 16 1017 64 10000 20 120 02.08.2018 14:22
100 gb London Rain 13 1016 91 10000 15 250 02.08.2018 14:22
101 ma Casablanca Clouds 20 1015 56 6000 7 280 02.08.2018 14:23
102 ma Marrakesch Clouds 19 1016 59 10000 6 80 02.08.2018 14:23
103 ch Andermatt Clouds 7 1023 95 10000 7 294 02.08.2018 14:23
104 ch Bern Clouds 14 1025 92 10000 7 100 02.08.2018 14:23
105 at Innsbruck Rain 11 1022 96 10000 6 170 02.08.2018 14:23
106 it Rom Clear 15 1022 79 10000 6 66 02.08.2018 14:23
107 tr Ankara Clear 20 1013 47 10000 4 0 02.08.2018 14:23
108 tr Istanbul Clouds 26 1008 47 10000 15 310 02.08.2018 14:23
109 et Addis Abeba Clouds 18 1027 68 10000 15 90 02.08.2018 14:23
110 ru Amderma Clouds 3 1013 97 1586 24 209 02.08.2018 14:23
111 ru Surgut Clear 3 1034 51 10000 26 230 02.08.2018 14:23
112 mn Ulaanbaatar Snow 0 1025 51 10000 11 320 02.08.2018 14:23
113 mn Uliastai Clear -3 1034 19 10000 9 315 02.08.2018 14:23
114 us Chicago Clear 14 1025 84 10000 11 360 02.08.2018 14:23
115 cl Santiago Clear 14 977 63 10000 6 87 02.08.2018 14:23
116 us Miami Clouds 24 1011 93 10000 11 10 02.08.2018 14:23
117 us Nome Clear 3 1005 70 10000 15 20 02.08.2018 14:23
118 us Fairbanks Clouds 6 1005 88 10000 0 0 02.08.2018 14:23
119 cn Peking Clouds 21 1011 75 10000 5 47 02.08.2018 14:23
120 mv Male Clouds 30 1012 66 10000 30 270 02.08.2018 14:23
121 no Oslo Clouds 9 1003 1 10000 5 20 02.08.2018 14:23
122 se Stockholm Rain 11 1001 93 10000 7 90 02.08.2018 14:23
123 ru Anadyr Clear 2 1008 74 10000 7 320 02.08.2018 14:23
124 qa Doha Clear 35 1007 26 10000 13 280 02.08.2018 14:23
125 nz Wellington Clouds 9 1004 96 7000 39 180 02.08.2018 14:23
126 cd Kisangani Clouds 23 1015 90 10000 3 90 02.08.2018 14:23
127 pe Cusco Clouds 11 1019 64 10000 5 302 02.08.2018 14:23
128 es Madrid Clear 12 1014 60 10000 8 38 02.08.2018 14:23